sat.trackr.live / text

‹ back to catalog

STARLINK-36296

NORAD 68380 · 2026-063A

PAYLOAD ACTIVE UNKNOWN

§ Identity

Operator
Country
US
Launch date
2026-03-26
Launch site
AFWTR
Launch vehicle
Mass (kg)
RCS (m²)

Purposes: comms

External: N2YO · Heavens-Above · Gunter

§ Orbital elements

Epoch: 2026-09-19T09:25:17.379264Z

Period
93.91 min
Inclination
97.2876°
Eccentricity
0.0000400
Mean motion
15.33407383 rev/d
Perigee alt
465.4 km
Apogee alt
465.9 km
Semi-major
6,843.8 km
B*
4.9797e-4
RAAN
46.2430°
Arg perigee
188.1931°
Mean anomaly
171.9305°
Rev number
2,777

§ Raw data

STARLINK-362961 68380U 26063A   26262.39256226  .00016016  00000+0  49797-3 0  99972 68380  97.2876  46.2430 0000400 188.1931 171.9305 15.33407383 27776

JSON: /api/v1/satellites/68380 · /tle

For live sub-satellite position, see the globe view (requires WebGL).

§ Visibility from observer

Set your observer location to see the next 7 days of passes ≥ 10°. The values pass through the URL so the page stays shareable.

No JS? Fill the form by hand. The geolocation button needs JavaScript.